Le nostre stazioni meteo in Italia

Pubblicità
Il mio iltempo24.it
Guidonia, Italia (16234): Temperatura & dewpoint: 14.10.2017 09:00:00 - 20.10.2017 09:00:00 (CEST)Guidonia, Italia (16234): velocità del vento: 14.10.2017 09:00:00 - 20.10.2017 09:00:00 (CEST)Guidonia, Italia (16234): direzione del vento: 14.10.2017 09:00:00 - 20.10.2017 09:00:00 (CEST)Guidonia, Italia (16234): reduced air pressure: 14.10.2017 09:00:00 - 20.10.2017 09:00:00 (CEST)Guidonia, Italia (16234): visibility: 14.10.2017 09:00:00 - 20.10.2017 09:00:00 (CEST)
Data & Tempo tt [°C] td [°C] ff [km/h] ff [kn] dd ppp [hPa] vv [km]
20.10.2017 09:00:00 - - - - - - -
20.10.2017 08:00:00 9,2 8,9 4 2 NO 1018,9 7
20.10.2017 07:00:00 11,0 11,0 9 5 NNE - 10
20.10.2017 06:00:00 - - - - - - -
20.10.2017 05:00:00 - - - - - - -
20.10.2017 04:00:00 - - - - - - -
20.10.2017 03:00:00 - - - - - - -
20.10.2017 02:00:00 - - - - - - -
20.10.2017 01:00:00 - - - - - - -
20.10.2017 00:00:00 - - - - - - -
19.10.2017 23:00:00 - - - - - - -
19.10.2017 22:00:00 - - - - - - -
19.10.2017 21:00:00 - - - - - - -
19.10.2017 20:00:00 16,6 13,9 5 3 NNE 1018,0 10
19.10.2017 19:00:00 19,0 13,0 5 3 SO - 10
19.10.2017 18:00:00 21,0 12,0 2 1 N - 10
19.10.2017 17:00:00 22,4 12,9 2 1 - 1017,2 10
19.10.2017 16:00:00 23,0 14,0 4 2 - - 10
19.10.2017 15:00:00 22,0 13,0 5 3 O - 10
19.10.2017 14:00:00 21,8 12,7 5 3 - 1018,5 8
19.10.2017 13:00:00 20,0 13,0 5 3 OSO - 8
19.10.2017 12:00:00 19,0 13,0 4 2 SO - 6
19.10.2017 11:00:00 17,0 13,5 2 1 - 1019,7 6
19.10.2017 10:00:00 13,0 13,0 9 5 ENE - 4,0
19.10.2017 09:00:00 12,0 11,0 5 3 NE - 3,0
19.10.2017 08:00:00 9,4 9,1 0 0 N 1019,1 1,5
19.10.2017 07:00:00 9,0 9,0 4 2 ENE - 10
19.10.2017 06:00:00 - - - - - - -
19.10.2017 05:00:00 - - - - - - -
19.10.2017 04:00:00 - - - - - - -
19.10.2017 03:00:00 - - - - - - -
19.10.2017 02:00:00 - - - - - - -
19.10.2017 01:00:00 - - - - - - -
19.10.2017 00:00:00 - - - - - - -
18.10.2017 23:00:00 - - - - - - -
18.10.2017 22:00:00 - - - - - - -
18.10.2017 21:00:00 - - - - - - -
18.10.2017 20:00:00 16,2 12,6 4 2 ENE 1019,5 10
18.10.2017 19:00:00 18,0 12,0 5 3 NE - 10
18.10.2017 18:00:00 22,0 12,0 0 0 N - 10
18.10.2017 17:00:00 22,8 10,2 2 1 - 1018,7 10
18.10.2017 16:00:00 23,0 10,0 5 3 OSO - 10
18.10.2017 15:00:00 23,0 11,0 8 4 S - 10
18.10.2017 14:00:00 22,6 12,2 4 2 SSO 1019,9 8
18.10.2017 13:00:00 21,0 13,0 5 3 - - 5
18.10.2017 12:00:00 19,0 12,0 4 2 - - 5
18.10.2017 11:00:00 16,8 11,9 2 1 - 1022,2 5
18.10.2017 10:00:00 14,0 13,0 5 3 OSO - 3,5
18.10.2017 09:00:00 11,0 11,0 0 0 N - 3,5
18.10.2017 08:00:00 9,6 9,3 5 3 NE 1021,8 5
18.10.2017 07:00:00 10,0 10,0 8 4 NNE - 10
18.10.2017 06:00:00 - - - - - - -
18.10.2017 05:00:00 - - - - - - -
18.10.2017 04:00:00 - - - - - - -
18.10.2017 03:00:00 - - - - - - -
18.10.2017 02:00:00 - - - - - - -
18.10.2017 01:00:00 - - - - - - -
18.10.2017 00:00:00 - - - - - - -
17.10.2017 23:00:00 - - - - - - -
17.10.2017 22:00:00 - - - - - - -
17.10.2017 21:00:00 - - - - - - -
17.10.2017 20:00:00 18,0 15,4 5 3 NE 1023,5 10
17.10.2017 19:00:00 21,0 15,0 5 3 OSO - 10
17.10.2017 18:00:00 23,0 15,0 11 6 OSO - 10
17.10.2017 17:00:00 24,4 13,9 8 4 SSO 1023,2 10
17.10.2017 16:00:00 25,0 14,0 5 3 S - 10
17.10.2017 15:00:00 25,0 12,0 8 4 SSO - 10
17.10.2017 14:00:00 24,2 11,9 8 4 S 1024,7 10
17.10.2017 13:00:00 23,0 12,0 4 2 - - 10
17.10.2017 12:00:00 22,0 12,0 5 3 O - 10
17.10.2017 11:00:00 19,0 10,0 4 2 SSO 1026,7 10
17.10.2017 10:00:00 16,0 9,0 2 1 ONO - 10
17.10.2017 09:00:00 13,0 12,0 2 1 N - 10
17.10.2017 08:00:00 10,0 9,9 5 3 NNE 1026,2 10
17.10.2017 07:00:00 11,0 11,0 5 3 NNE - 10
17.10.2017 06:00:00 - - - - - - -
17.10.2017 05:00:00 - - - - - - -
17.10.2017 04:00:00 - - - - - - -
17.10.2017 03:00:00 - - - - - - -
17.10.2017 02:00:00 - - - - - - -
17.10.2017 01:00:00 - - - - - - -
17.10.2017 00:00:00 - - - - - - -
16.10.2017 23:00:00 - - - - - - -
16.10.2017 22:00:00 - - - - - - -
16.10.2017 21:00:00 - - - - - - -
16.10.2017 20:00:00 18,2 9,3 9 5 NNE 1027,0 10
16.10.2017 19:00:00 20,0 10,0 8 4 NE - 10
16.10.2017 18:00:00 25,0 8,0 4 2 OSO - 10
16.10.2017 17:00:00 26,8 7,8 4 2 SO 1026,0 10
16.10.2017 16:00:00 27,0 9,0 2 1 ONO - 10
16.10.2017 15:00:00 27,0 9,0 4 2 - - 10
16.10.2017 14:00:00 26,2 9,5 5 3 SSO 1027,2 10
16.10.2017 13:00:00 25,0 9,0 2 1 O - 10
16.10.2017 12:00:00 23,0 11,0 5 3 O - 10
16.10.2017 11:00:00 19,6 9,8 4 2 O 1028,2 10
16.10.2017 10:00:00 16,0 10,0 2 1 - - 10
16.10.2017 09:00:00 12,0 11,0 4 2 N - 10
16.10.2017 08:00:00 9,6 9,3 4 2 N 1028,0 10
16.10.2017 07:00:00 10,0 9,0 4 2 N - 10
16.10.2017 06:00:00 - - - - - - -
16.10.2017 05:00:00 - - - - - - -
16.10.2017 04:00:00 - - - - - - -
16.10.2017 03:00:00 - - - - - - -
16.10.2017 02:00:00 - - - - - - -
16.10.2017 01:00:00 - - - - - - -
16.10.2017 00:00:00 - - - - - - -
15.10.2017 23:00:00 - - - - - - -
15.10.2017 22:00:00 - - - - - - -
15.10.2017 21:00:00 - - - - - - -
15.10.2017 20:00:00 - - - - - - -
15.10.2017 19:00:00 - - - - - - -
15.10.2017 18:00:00 - - - - - - -
15.10.2017 17:00:00 - - - - - - -
15.10.2017 16:00:00 - - - - - - -
15.10.2017 15:00:00 - - - - - - -
15.10.2017 14:00:00 - - - - - - -
15.10.2017 13:00:00 - - - - - - -
15.10.2017 12:00:00 - - - - - - -
15.10.2017 11:00:00 - - - - - - -
15.10.2017 10:00:00 - - - - - - -
15.10.2017 09:00:00 - - - - - - -
15.10.2017 08:00:00 - - - - - - -
15.10.2017 07:00:00 - - - - - - -
15.10.2017 06:00:00 - - - - - - -
15.10.2017 05:00:00 - - - - - - -
15.10.2017 04:00:00 - - - - - - -
15.10.2017 03:00:00 - - - - - - -
15.10.2017 02:00:00 - - - - - - -
15.10.2017 01:00:00 - - - - - - -
15.10.2017 00:00:00 - - - - - - -
14.10.2017 23:00:00 - - - - - - -
14.10.2017 22:00:00 - - - - - - -
14.10.2017 21:00:00 - - - - - - -
14.10.2017 20:00:00 - - - - - - -
14.10.2017 19:00:00 - - - - - - -
14.10.2017 18:00:00 - - - - - - -
14.10.2017 17:00:00 - - - - - - -
14.10.2017 16:00:00 - - - - - - -
14.10.2017 15:00:00 - - - - - - -
14.10.2017 14:00:00 - - - - - - -
14.10.2017 13:00:00 - - - - - - -
14.10.2017 12:00:00 - - - - - - -
14.10.2017 11:00:00 - - - - - - -
14.10.2017 10:00:00 - - - - - - -
14.10.2017 09:00:00 - - - - - - -

tt = Temperatura
td = dewpoint
ff = velocità del vento
dd = direzione del vento
ppp = reduced air pressure
vv = visibility

Stazioni seguenti

WeatherPro
AMSI
MeteoEarth